Total_Precipitation_Accumulation
0.01 0.05 0.12 0.08 0.06 0.05 0.06 0.07 0.08 0.08 0.13 0.19 0.19 0.18 0.19 0.19 0.21 0.18 0.22 0.24 0.25 0.28 0.28 0.29 0.31 0.33 0.34 0.33 0.22 0.10 0.04 0.03 0.03 0.03 0.03 0.04 0.05 0.06 0.06 0.06 0.07 0.08 0.10
0.01 0.04 0.11 0.08 0.07 0.07 0.07 0.08 0.07 0.08 0.14 0.19 0.19 0.20 0.22 0.22 0.22 0.21 0.21 0.22 0.22 0.22 0.23 0.23 0.20 0.15 0.11 0.09 0.05 0.03 0.02 0.01 0.01 0.01 0.01 0.01 0.03 0.04 0.04 0.04 0.06 0.09 0.11
0.01 0.04 0.10 0.10 0.08 0.08 0.08 0.07 0.07 0.09 0.13 0.17 0.19 0.20 0.20 0.20 0.20 0.21 0.22 0.19 0.18 0.17 0.18 0.15 0.10 0.06 0.03 0.02 0.01 0.01 0.01 0.01 0.00 0.00 0.01 0.02 0.03 0.04 0.04 0.04 0.07 0.10 0.11
0.02 0.05 0.07 0.11 0.10 0.09 0.08 0.08 0.09 0.11 0.14 0.16 0.19 0.21 0.21 0.20 0.21 0.22 0.19 0.14 0.12 0.11 0.09 0.05 0.03 0.02 0.01 0.01 0.01 0.01 0.01 0.00 0.00 0.00 0.01 0.02 0.03 0.06 0.07 0.06 0.07 0.08 0.09
0.05 0.06 0.11 0.16 0.15 0.12 0.10 0.10 0.11 0.13 0.15 0.19 0.22 0.25 0.24 0.24 0.24 0.22 0.15 0.10 0.07 0.06 0.05 0.03 0.01 0.01 0.01 0.01 0.01 0.00 0.01 0.01 0.00 0.00 0.00 0.01 0.03 0.07 0.07 0.07 0.08 0.10 0.11
0.12 0.13 0.18 0.23 0.23 0.20 0.16 0.14 0.14 0.15 0.17 0.20 0.25 0.28 0.27 0.27 0.27 0.21 0.15 0.08 0.05 0.04 0.04 0.02 0.01 0.00 0.00 0.00 0.01 0.00 0.01 0.01 0.00 0.00 0.00 0.01 0.03 0.07 0.07 0.08 0.11 0.14 0.16
0.22 0.23 0.25 0.27 0.26 0.25 0.23 0.19 0.16 0.18 0.19 0.22 0.27 0.28 0.28 0.27 0.26 0.23 0.15 0.07 0.05 0.04 0.03 0.02 0.02 0.01 0.00 0.01 0.00 0.00 0.00 0.00 0.00 0.00 0.01 0.01 0.03 0.08 0.09 0.10 0.11 0.14 0.17
0.37 0.42 0.40 0.39 0.33 0.29 0.27 0.26 0.24 0.23 0.22 0.26 0.32 0.31 0.30 0.28 0.26 0.23 0.16 0.08 0.05 0.04 0.04 0.03 0.02 0.01 0.01 0.01 0.00 0.00 0.00 0.00 0.00 0.00 0.00 0.01 0.03 0.07 0.08 0.08 0.09 0.10 0.12
0.66 0.67 0.59 0.50 0.42 0.36 0.31 0.28 0.27 0.27 0.28 0.32 0.35 0.33 0.34 0.31 0.28 0.22 0.16 0.09 0.07 0.05 0.05 0.04 0.03 0.02 0.01 0.01 0.01 0.00 0.00 0.00 0.00 0.00 0.00 0.01 0.03 0.07 0.09 0.10 0.12 0.12 0.11
0.90 0.92 0.83 0.66 0.54 0.45 0.39 0.32 0.28 0.28 0.29 0.32 0.32 0.28 0.28 0.30 0.31 0.22 0.14 0.10 0.07 0.06 0.05 0.04 0.03 0.02 0.01 0.01 0.01 0.00 0.00 0.00 0.00 0.00 0.00 0.01 0.04 0.09 0.12 0.14 0.13 0.12 0.11
1.09 1.07 1.04 0.88 0.67 0.53 0.42 0.33 0.31 0.30 0.29 0.29 0.27 0.23 0.22 0.24 0.26 0.19 0.12 0.09 0.09 0.08 0.06 0.04 0.03 0.03 0.01 0.00 0.00 0.00 0.00 0.00 0.00 0.00 0.01 0.02 0.07 0.12 0.12 0.09 0.08 0.07 0.08
1.12 1.09 1.09 0.97 0.84 0.72 0.55 0.37 0.33 0.32 0.31 0.28 0.23 0.23 0.22 0.20 0.21 0.16 0.13 0.10 0.09 0.07 0.06 0.04 0.04 0.03 0.01 0.00 0.00 0.00 0.00 0.00 0.00 0.00 0.01 0.04 0.08 0.09 0.07 0.05 0.06 0.06 0.06
1.20 1.24 1.19 1.10 0.94 0.85 0.74 0.51 0.36 0.32 0.33 0.32 0.24 0.23 0.23 0.22 0.22 0.19 0.15 0.12 0.10 0.07 0.05 0.04 0.02 0.01 0.00 0.00 0.00 0.00 0.00 0.00 0.00 0.00 0.01 0.02 0.03 0.05 0.04 0.03 0.04 0.04 0.03
1.27 1.25 1.24 1.23 1.07 0.88 0.76 0.62 0.45 0.33 0.30 0.32 0.29 0.24 0.23 0.21 0.18 0.15 0.13 0.11 0.10 0.07 0.04 0.03 0.02 0.01 0.01 0.00 0.00 0.00 0.00 0.00 0.00 0.00 0.00 0.00 0.01 0.02 0.03 0.03 0.03 0.03 0.03
1.22 1.28 1.25 1.26 1.20 1.03 0.89 0.71 0.55 0.41 0.34 0.33 0.33 0.30 0.25 0.23 0.19 0.15 0.13 0.12 0.11 0.09 0.06 0.04 0.03 0.01 0.01 0.00 0.00 0.00 0.00 0.00 0.00 0.00 0.00 0.00 0.00 0.01 0.02 0.02 0.03 0.04 0.07
1.06 1.23 1.27 1.27 1.29 1.22 1.01 0.84 0.67 0.50 0.39 0.39 0.38 0.32 0.30 0.28 0.25 0.21 0.17 0.14 0.12 0.10 0.08 0.05 0.03 0.02 0.01 0.00 0.00 0.00 0.00 0.00 0.00 0.00 0.00 0.00 0.00 0.00 0.01 0.02 0.03 0.06 0.09
1.00 1.19 1.20 1.27 1.35 1.33 1.21 1.05 0.81 0.66 0.47 0.39 0.41 0.39 0.35 0.32 0.29 0.27 0.23 0.19 0.15 0.12 0.10 0.08 0.07 0.05 0.03 0.02 0.01 0.00 0.00 0.00 0.00 0.00 0.00 0.00 0.00 0.00 0.00 0.01 0.03 0.06 0.09
1.12 1.21 1.25 1.25 1.37 1.37 1.34 1.30 1.10 0.85 0.65 0.50 0.45 0.48 0.41 0.38 0.37 0.34 0.29 0.22 0.17 0.16 0.13 0.09 0.07 0.06 0.05 0.03 0.02 0.02 0.01 0.00 0.00 0.00 0.00 0.00 0.00 0.00 0.00 0.00 0.02 0.05 0.09
1.20 1.24 1.37 1.33 1.39 1.48 1.48 1.48 1.38 1.17 0.91 0.72 0.59 0.51 0.50 0.43 0.41 0.39 0.34 0.29 0.25 0.19 0.16 0.13 0.09 0.06 0.06 0.05 0.03 0.02 0.01 0.00 0.00 0.00 0.00 0.00 0.00 0.00 0.00 0.00 0.01 0.02 0.05
1.22 1.31 1.45 1.48 1.49 1.64 1.74 1.74 1.67 1.42 1.14 0.97 0.79 0.64 0.58 0.56 0.50 0.44 0.39 0.36 0.35 0.30 0.21 0.16 0.14 0.10 0.08 0.07 0.06 0.03 0.02 0.01 0.01 0.00 0.01 0.01 0.01 0.01 0.01 0.01 0.02 0.02 0.02
1.21 1.32 1.41 1.50 1.56 1.69 1.71 1.68 1.65 1.48 1.27 1.10 0.99 0.89 0.79 0.73 0.70 0.58 0.46 0.44 0.42 0.38 0.33 0.29 0.26 0.22 0.16 0.14 0.11 0.06 0.03 0.02 0.01 0.01 0.01 0.01 0.01 0.02 0.02 0.02 0.02 0.02 0.02
1.02 1.22 1.35 1.44 1.57 1.58 1.58 1.69 1.80 1.86 1.67 1.41 1.26 1.12 0.98 0.92 0.87 0.77 0.65 0.56 0.50 0.49 0.46 0.42 0.38 0.35 0.30 0.28 0.24 0.21 0.11 0.04 0.02 0.01 0.02 0.02 0.02 0.03 0.02 0.03 0.03 0.03 0.03
0.85 1.06 1.30 1.43 1.57 1.60 1.64 1.85 1.99 2.09 1.91 1.61 1.28 1.11 1.08 1.10 1.09 0.97 0.89 0.83 0.72 0.63 0.55 0.51 0.49 0.46 0.40 0.36 0.33 0.34 0.23 0.10 0.04 0.02 0.02 0.02 0.03 0.03 0.03 0.04 0.05 0.05 0.04
0.72 0.88 1.05 1.24 1.43 1.60 1.65 1.69 1.72 1.76 1.71 1.51 1.40 1.31 1.31 1.31 1.29 1.21 1.13 1.08 0.99 0.86 0.70 0.63 0.59 0.55 0.52 0.46 0.39 0.32 0.29 0.21 0.18 0.10 0.04 0.04 0.04 0.04 0.05 0.06 0.06 0.06 0.05
0.63 0.83 0.96 1.07 1.27 1.48 1.59 1.64 1.72 1.67 1.65 1.71 1.67 1.59 1.48 1.41 1.38 1.34 1.27 1.22 1.13 1.03 0.94 0.89 0.81 0.73 0.63 0.56 0.49 0.41 0.39 0.31 0.24 0.24 0.15 0.08 0.08 0.08 0.07 0.06 0.06 0.06 0.07
0.54 0.71 0.91 0.97 1.08 1.23 1.42 1.60 1.66 1.59 1.60 1.63 1.61 1.57 1.52 1.50 1.48 1.39 1.31 1.25 1.18 1.12 1.08 1.03 1.01 0.93 0.84 0.74 0.66 0.57 0.52 0.45 0.35 0.34 0.32 0.21 0.17 0.13 0.11 0.09 0.08 0.09 0.10